Weather History for Dundee, United Kingdom

Change the Weather History Date:

Friday, October 26, 2012

  Actual Average Record
Temperature  
Mean Temperature 37 °F -  
Max Temperature 42 °F 48 °F 57 °F (2006)
Min Temperature 32 °F 41 °F 32 °F (2012)
Degree Days  
Heating Degree Days 28    
Moisture  
Dew Point 26 °F    
Average Humidity 64    
Maximum Humidity 87    
Minimum Humidity 42    
Precipitation  
Precipitation 0.00 in - - ()
Sea Level Pressure  
Sea Level Pressure 30.11 in    
Wind  
Wind Speed 7 mph ()    
Max Wind Speed 15 mph    
Max Gust Speed -    
Visibility 6.1 miles    
Events Snow    
Averages and records for this station are not official NWS values.
T = Trace of Precipitation, MM = Missing Value Source: Averaged Metar Reports

Daily Weather History Graph

Daily Weather History Graph

Search for Another Location

Airport:

Trip Planner

Search our weather history database for the weather conditions in past years. The results will help you decide how hot, cold, wet, or windy it might be!

Date:

Astronomy

Oct. 26, 2012 Rise Set
Actual Time 8:08 AM BST 5:42 PM BST
Civil Twilight 7:28 AM BST 6:22 PM BST
Nautical Twilight 6:44 AM BST 7:06 PM BST
Astronomical Twilight 6:01 AM BST 7:49 PM BST
Moon 4:16 PM BST (10/26) 4:19 AM BST (10/26)
Length of Visible Light 10h 53m
Length of Day
9h 34m
Waxing Gibbous, 89% of the Moon is Illuminated
Oct 26
Waxing Gibbous
Oct 29
Full
Nov 7
Last Quarter
Nov 13
New
Nov 20
First Quarter

Hourly Weather History & Observations

Time (BST) Temp. Windchill Dew Point Humidity Pressure Visibility Wind Dir Wind Speed Gust Speed Precip Events Conditions
7:20 AM 35.6 °F 30.7 °F 26.6 °F 70% 30.18 in 6.2 mi North 5.8 mph - N/A   Partly Cloudy
7:50 AM 35.6 °F 30.7 °F 24.8 °F 65% 30.18 in 6.2 mi North 5.8 mph - N/A   Partly Cloudy
8:20 AM 33.8 °F 27.7 °F 24.8 °F 70% 30.18 in 6.2 mi NNW 6.9 mph - N/A   Partly Cloudy
8:50 AM 33.8 °F 27.7 °F 24.8 °F 70% 30.18 in - NNW 6.9 mph - N/A   Clear
9:20 AM 35.6 °F 29.9 °F 26.6 °F 70% 30.18 in - NW 6.9 mph - N/A   Clear
9:50 AM 37.4 °F 33.8 °F 26.6 °F 65% 30.15 in - WNW 4.6 mph - N/A   Clear
10:20 AM 37.4 °F 32.1 °F 26.6 °F 65% 30.15 in - WNW 6.9 mph - N/A   Clear
10:50 AM 39.2 °F 33.6 °F 26.6 °F 61% 30.15 in - West 8.1 mph - N/A   Clear
11:20 AM 39.2 °F 33.6 °F 26.6 °F 61% 30.15 in - West 8.1 mph - N/A   Clear
11:50 AM 41.0 °F 35.8 °F 26.6 °F 57% 30.12 in - WNW 8.1 mph - N/A   Clear
12:20 PM 41.0 °F 35.2 °F 28.4 °F 61% 30.12 in - West 9.2 mph - N/A   Clear
12:50 PM 42.8 °F 37.5 °F 23.0 °F 46% 30.12 in - WNW 9.2 mph - N/A   Clear
1:20 PM 42.8 °F 37.0 °F 21.2 °F 42% 30.09 in 6.2 mi NW 10.4 mph - N/A   Partly Cloudy
1:50 PM 42.8 °F 36.2 °F 21.2 °F 42% 30.09 in 6.2 mi NNW 12.7 mph - N/A   Partly Cloudy
2:20 PM 42.8 °F 36.6 °F 23.0 °F 46% 30.09 in 6.2 mi NNW 11.5 mph - N/A   Partly Cloudy
2:50 PM 42.8 °F 35.8 °F 21.2 °F 42% 30.06 in 6.2 mi NNW 13.8 mph - N/A   Partly Cloudy
3:20 PM 42.8 °F 37.5 °F 24.8 °F 49% 30.06 in 6.2 mi NW 9.2 mph - N/A   Partly Cloudy
3:50 PM 41.0 °F 33.1 °F 28.4 °F 61% 30.09 in 6.2 mi North 15.0 mph - N/A   Partly Cloudy
4:20 PM 39.2 °F 33.0 °F 26.6 °F 61% 30.09 in 6.2 mi NNW 9.2 mph - N/A   Scattered Clouds
4:50 PM 37.4 °F 32.8 °F 26.6 °F 65% 30.09 in 6.2 mi NNW 5.8 mph - N/A   Scattered Clouds
5:20 PM 35.6 °F 31.7 °F 26.6 °F 70% 30.09 in 6.2 mi NW 4.6 mph - N/A   Scattered Clouds
5:50 PM 33.8 °F 27.0 °F 28.4 °F 81% 30.06 in 6.2 mi NW 8.1 mph - N/A   Partly Cloudy
6:20 PM 33.8 °F 28.6 °F 26.6 °F 75% 30.09 in 6.2 mi NW 5.8 mph - N/A   Partly Cloudy
6:50 PM 32.0 °F 25.6 °F 28.4 °F 87% 30.06 in 6.2 mi West 6.9 mph - N/A   Partly Cloudy
7:20 PM 35.6 °F 29.9 °F 24.8 °F 65% 30.06 in 6.2 mi WNW 6.9 mph - N/A   Partly Cloudy
7:50 PM 33.8 °F 28.6 °F 24.8 °F 70% 30.06 in - West 5.8 mph - N/A   Clear
8:20 PM 35.6 °F 29.9 °F 24.8 °F 65% 30.06 in - WNW 6.9 mph - N/A   Clear
8:50 PM 33.8 °F 27.7 °F 23.0 °F 65% 30.06 in 6.2 mi WNW 6.9 mph - N/A Snow Light Snow Showers
9:20 PM 35.6 °F 32.8 °F 28.4 °F 75% 30.09 in 3.7 mi North 3.5 mph - N/A Snow Light Snow Showers
9:50 PM 32.0 °F - 28.4 °F 87% 30.09 in 6.2 mi WNW 2.3 mph - N/A   Scattered Clouds